Location: Berg
(48.4333°N, 13.9167°E)
Time: 03:00:08
(UTC+00:00)

Cosmos 2285 Rocket - Pass Details

Date: 18 September 2020
Orbit: 970 x 1000 km, 74.0° (Epoch: 24 October)

Event Time Altitude Azimuth Distance (km) Brightness Sun altitude
Rises 19:32:33 0° 196° (SSW) 3,651 6.9 -23.2°
Reaches altitude 10° 19:35:04 10° 195° (SSW) 2,710 6.2 -23.6°
Maximum altitude 19:41:21 79° 110° (ESE) 999 3.8 -24.5°
Drops below altitude 10° 19:47:42 10° 25° (NNE) 2,745 6.5 -25.3°
Sets 19:50:16 0° 24° (NNE) 3,702 7.2 -25.7°
